Tracking 18957 objects as of 22-Jan-2018
HD Live streaming from Space Station
objects crossing your sky now

FENGYUN 1C DEB

Track FENGYUN 1C DEB now!
10-day predictions


NORAD ID: 35207
Int'l Code: 1999-025DPP
Perigee: 740.0 km
Apogee: 854.7 km
Inclination: 98.9 °
Period: 100.7 minutes
Semi major axis: 7168 km
RCS: 0.0073 m2 (small)
Launch date: May 10, 1999
Source: People's Republic of China (PRC)
Launch site: Taiyaun Space Center, China (TSC)

Note: This is SATELLITE DEBRIS
aabbcc
Your satellite tracking list
Your tracking list is empty




NASA's NSSDC Master Catalog

Two Line Element Set (TLE):
1 35207U 99025DPP 18022.19506253  .00000758  00000-0  29811-3 0  9990
2 35207  98.8778  26.9947 0080017 121.6291 239.2730 14.30448361503267
Source of the keplerian elements: AFSPC